[[{"header":{"parameterUnit":"m.s-1","parameterCategory":1,"la1":30.2992,"la2":30.254,"lo1":-89.0895,"lo2":-89.0443,"dy":0.0025,"dx":0.0025,"nx":19,"ny":19,"refTime":"2026-04-11T09:00:00:Z","depth":0,"parameterNumber":2,"parameterNumberName":"U-component_of_WINDS"},"data":[0,0,0,-3.0184,-3.0185,-3.0206,-3.0206,-3.0261,-3.0262,0,0,0,0,0,0,0,0,0,0,0,-3.0194,-3.0195,-3.0184,-3.0185,-3.0206,-3.0206,-3.0261,-3.0262,0,0,0,0,0,0,0,0,0,0,0,-3.0194,-3.0195,-3.0196,-3.0185,-3.0206,-3.0206,-3.0261,-3.0235,0,0,0,0,0,0,0,0,0,0,-3.021,-3.0234,-3.0195,-3.0196,-3.0186,-3.0206,-3.0206,-3.0233,-3.0237,-3.0263,0,-3.029,0,-3.0277,-3.0267,-3.0267,0,0,0,-3.0174,-3.0232,-3.0223,-3.0196,-3.0186,-3.0206,-3.0193,-3.0235,-3.0239,-3.0268,-3.029,-3.0292,-3.0278,-3.0267,-3.0268,-3.0459,-3.0461,0,0,-3.0173,-3.0207,-3.0221,-3.0226,-3.0223,-3.0193,-3.0194,-3.0237,-3.0264,-3.0291,-3.0293,-3.0279,-3.0268,-3.0269,-3.0458,-3.046,0,0,0,-3.0177,-3.0206,-3.0196,-3.0225,-3.0226,-3.0194,-3.0195,-3.0262,-3.0256,-3.0293,-3.0279,-3.0268,-3.0269,-3.0456,-3.0459,-3.0565,0,0,0,-3.0176,-3.0209,-3.0196,-3.0217,-3.0226,-3.0244,-3.022,-3.0253,-3.0257,-3.0279,-3.0269,-3.027,-3.0455,-3.0458,-3.0559,-3.0611,0,0,0,-3.0187,-3.021,-3.0218,-3.0219,-3.0229,-3.0243,-3.0238,-3.0253,-3.0249,-3.0267,-3.027,-3.0454,-3.0457,-3.0553,-3.0601,-3.0675,0,0,0,-3.021,-3.0311,-3.0221,-3.0329,-3.0229,-3.0307,-3.0238,-3.0294,-3.0322,-3.0269,-3.0455,-3.0458,-3.0551,-3.0596,-3.0669,-3.0745,-3.0778,0,0,-3.0357,-3.033,-3.0391,-3.0311,-3.0414,-3.0301,-3.0421,-3.0414,-3.0384,-3.0436,-3.0441,-3.0561,-3.0601,-3.0673,-3.095,-3.0977,0,0,0,-3.0449,-3.0494,-3.0514,-3.0543,-3.054,-3.0543,-3.0514,-3.0512,-3.0555,-3.0417,-3.0604,-3.0626,-3.0668,-3.0703,-3.0726,-3.0761,-3.0475,-3.0474,-3.0474,-3.0709,-3.0666,-3.0765,-3.0725,-3.0754,-3.0724,-3.0744,-3.0736,-3.0683,-3.0728,-3.0745,-3.0918,-3.096,-3.0977,-3.1014,-3.0778,-3.0778,-3.0778,-3.0779,-3.0924,-3.0982,-3.091,-3.0981,-3.0936,-3.0995,-3.0971,-3.0932,-3.0982,-3.0901,-3.0935,-3.0854,-3.1008,-3.1038,-3.0786,-3.0785,-3.0784,-3.0783,-3.0783,-3.1092,-3.1113,-3.1108,-3.1147,-3.1182,-3.1137,-3.1189,-3.1144,-3.1103,-3.1136,-3.1152,-3.115,-3.1146,-3.1146,-3.1147,-3.1147,-3.1148,-3.1148,-3.1149,-3.1271,-3.1262,-3.1311,-3.1318,-3.1332,-3.1344,-3.1316,-3.1329,-3.1332,-3.1296,-3.1296,-3.1242,-3.1029,-3.098,-3.1158,-3.1156,-3.1155,-3.1154,-3.1153,-3.1512,-3.145,-3.1527,-3.1541,-3.1547,-3.1587,-3.1528,-3.1559,-3.1563,-3.1591,-3.1529,-3.1377,-3.1347,-3.1329,-3.1288,-3.1535,-3.1535,-3.1535,-3.1535,-3.1657,-3.1637,-3.1707,-3.1733,-3.1753,-3.1709,-3.18,-3.178,-3.1749,-3.175,-3.1707,-3.1646,-3.1629,-3.1609,-3.1585,-3.1546,-3.1853,-3.1854,-3.1854,-3.1805,-3.1785,-3.1871,-3.1839,-3.1841,-3.1844,-3.193,-3.1965,-3.1917,-3.1866,-3.1751,-3.1737,-3.1639,-3.1609,-3.156,-3.1522,-3.145,0,0]},{"header":{"parameterUnit":"m.s-1","parameterCategory":1,"la1":30.2992,"la2":30.254,"lo1":-89.0895,"lo2":-89.0443,"dy":0.0025,"dx":0.0025,"nx":19,"ny":19,"refTime":"2026-04-11T09:00:00:Z","depth":0,"parameterNumber":3,"parameterNumberName":"V-component_of_WINDS"},"data":[0,0,0,-1.186,-1.186,-1.1868,-1.1868,-1.1883,-1.1883,0,0,0,0,0,0,0,0,0,0,0,-1.1863,-1.1863,-1.186,-1.186,-1.1868,-1.1868,-1.1883,-1.1883,0,0,0,0,0,0,0,0,0,0,0,-1.1863,-1.1863,-1.1863,-1.186,-1.1868,-1.1868,-1.1883,-1.1875,0,0,0,0,0,0,0,0,0,0,-1.1867,-1.1874,-1.1863,-1.1863,-1.1861,-1.1868,-1.1868,-1.1874,-1.1875,-1.1882,0,-1.1891,0,-1.1887,-1.1884,-1.1885,0,0,0,-1.1857,-1.1874,-1.1871,-1.1863,-1.1861,-1.1868,-1.1863,-1.1875,-1.1876,-1.1884,-1.1891,-1.1891,-1.1887,-1.1885,-1.1885,-1.1939,-1.194,0,0,-1.1856,-1.1867,-1.187,-1.1872,-1.1872,-1.1863,-1.1864,-1.1875,-1.1884,-1.1891,-1.1892,-1.1888,-1.1885,-1.1885,-1.1939,-1.1939,0,0,0,-1.1858,-1.1867,-1.1864,-1.1872,-1.1872,-1.1863,-1.1864,-1.1883,-1.1881,-1.1892,-1.1888,-1.1885,-1.1885,-1.1938,-1.1939,-1.1971,0,0,0,-1.1857,-1.1867,-1.1864,-1.187,-1.1872,-1.1878,-1.1872,-1.1881,-1.1882,-1.1888,-1.1885,-1.1885,-1.1938,-1.1939,-1.1969,-1.1985,0,0,0,-1.1861,-1.1868,-1.187,-1.1871,-1.1874,-1.1878,-1.1877,-1.1881,-1.188,-1.1885,-1.1885,-1.1938,-1.1939,-1.1967,-1.1982,-1.2003,0,0,0,-1.1867,-1.1899,-1.1871,-1.1904,-1.1874,-1.1897,-1.1876,-1.1893,-1.1901,-1.1885,-1.1938,-1.1939,-1.1967,-1.198,-1.2001,-1.2023,-1.2033,0,0,-1.1913,-1.1904,-1.1923,-1.1898,-1.193,-1.1895,-1.193,-1.1928,-1.1919,-1.1933,-1.1934,-1.197,-1.1982,-1.2002,-1.2082,-1.209,0,0,0,-1.1941,-1.1955,-1.196,-1.1969,-1.1967,-1.1967,-1.1958,-1.1957,-1.1968,-1.1928,-1.1982,-1.1989,-1.2,-1.201,-1.2017,-1.2026,-1.1944,-1.1944,-1.1944,-1.2021,-1.2007,-1.2037,-1.2023,-1.2031,-1.2021,-1.2026,-1.2022,-1.2006,-1.2018,-1.2023,-1.2073,-1.2085,-1.209,-1.21,-1.2033,-1.2033,-1.2033,-1.2033,-1.2087,-1.2104,-1.2081,-1.2101,-1.2086,-1.2102,-1.2092,-1.208,-1.2093,-1.2069,-1.2078,-1.2055,-1.21,-1.2108,-1.2035,-1.2035,-1.2034,-1.2034,-1.2034,-1.2139,-1.2145,-1.2142,-1.2152,-1.2161,-1.2145,-1.2158,-1.2143,-1.2129,-1.2138,-1.2142,-1.2141,-1.2139,-1.2141,-1.2141,-1.2141,-1.2141,-1.2141,-1.2141,-1.2195,-1.2191,-1.2205,-1.2204,-1.2207,-1.2208,-1.2196,-1.2198,-1.2197,-1.2185,-1.2184,-1.2167,-1.2106,-1.2092,-1.2144,-1.2144,-1.2143,-1.2143,-1.2143,-1.227,-1.225,-1.2271,-1.2274,-1.2271,-1.2281,-1.226,-1.2265,-1.2264,-1.2271,-1.225,-1.2208,-1.2198,-1.2193,-1.2181,-1.2253,-1.2253,-1.2253,-1.2253,-1.2315,-1.2308,-1.2326,-1.2331,-1.2333,-1.2317,-1.234,-1.233,-1.2316,-1.2315,-1.2301,-1.2284,-1.2279,-1.2273,-1.2265,-1.2254,-1.2343,-1.2343,-1.2343,-1.236,-1.2353,-1.2376,-1.2363,-1.2359,-1.2356,-1.2377,-1.2383,-1.2364,-1.2347,-1.2313,-1.2309,-1.2281,-1.2272,-1.2257,-1.2246,-1.2225,0,0]}]]